Regional Weather Roundup
Issued by NWS State College, PA

Current Version | Previous Version | Text Only | Print | Product List | Glossary On
Versions: 1 2 3 4 5 6 7 8 9 10 11 12 13 14 15 16 17 18 19 20 21 22 23 24 25 26 27 28 29 30 31 32 33 34 35 36 37 38 39 40 41 42 43 44 45 46 47 48 49 50
000 ASUS41 KCTP 050410 RWRCTP REGIONAL WEATHER ROUNDUP NATIONAL WEATHER SERVICE STATE COLLEGE PA 1100 PM EST THU MAR 04 2021 Note: "fair" indicates few or no clouds below 12,000 feet with no significant weather and/or obstructions to visibility. * = STATION THAT DOES NOT REPORT PRECIPITATION /E.G. RAIN...SNOW...ETC/ THUNDER OR FOG. PAZ002>004-007>009-013>016-020>023-029>032-050500- WESTERN PENNSYLVANIA CITY SKY/WX TMP DP RH WIND PRES REMARKS ERIE PTCLDY 22 12 65 NW12 30.23R WCI 10 MEADVILLE CLOUDY 19 12 74 N16 30.15S WCI 4 FRANKLIN CLOUDY 19 12 74 NW9 30.13S WCI 8 NEW CASTLE CLOUDY 22 14 71 NW6 N/A WCI 14 BEAVER COUNTY PTCLDY 22 14 71 NW10G16 30.17F WCI 11 BUTLER MOCLDY 19 13 77 VRB5 30.16F WCI 12 PITTSBURGH INT PTCLDY 22 11 62 NW10 30.17S WCI 11 PITTSBURGH CLEAR 23 12 62 NW10G21 30.15S WCI 12 INDIANA* PTCLDY 21 12 68 NW9 30.14S WCI 11 LATROBE CLEAR 23 12 63 W6 30.16R WASHINGTON CO* PTCLDY 23 14 68 NW8 30.21R WCI 14 $$ PAZ004>006-010>012-017>019-024>028-033>037-041-042-045-046-049>053-050500- CENTRAL PENNSYLVANIA CITY SKY/WX TMP DP RH WIND PRES REMARKS BRADFORD MOCLDY 17 6 62 NW20 30.02S WCI 1 ST MARYS MOCLDY 18 10 73 NW12G20 30.06S WCI 5 DUBOIS PTCLDY 19 9 65 NW10 30.05S WCI 7 CLEARFIELD CLEAR 21 7 54 NW12G20 30.06S WCI 9 JOHNSTOWN CLEAR 19 9 65 NW22G29 30.00F WCI 2 SOMERSET FAIR 19 10 68 W16 30.04F WCI 5 ALTOONA CLEAR 24 10 55 NW12G21 30.05R WCI 13 STATE COLLEGE CLEAR 23 9 53 NW13G22 30.04R WCI 12 REEDSVILLE FAIR 27 10 50 W13G21 30.05R WELLSBORO FAIR 16 5 62 NW14G24 29.96F WCI 1 WILLIAMSPORT CLEAR 26 4 38 NW10 30.03S SELINSGROVE CLEAR 28 7 41 NW12G17 30.03F FT INDIANTOWN CLEAR 29 5 35 W10G21 29.99S CAPITAL CITY CLEAR 31 10 41 NW14 30.03R HARRISBURG PTCLDY 30 10 43 NW17G23 30.01S YORK CLEAR 28 12 51 NW7 30.01S $$ PAZ038>040-043-044-047-048-054-055-060>062-067>071-050500- EASTERN PENNSYLVANIA CITY SKY/WX TMP DP RH WIND PRES REMARKS TOWANDA CLEAR 21 7 53 NW7 30.03F WCI 13 SCRANTON CLEAR 23 7 50 NW18G28 29.96S WCI 9 MOUNT POCONO CLEAR 17 6 62 NW26G38 29.82F WCI -2 HAZLETON FAIR 23 1 39 NW14G24 29.93S WCI 11 LEHIGHTON FAIR 28 7 40 NW6 29.97S ALLENTOWN CLEAR 27 6 41 NW22G29 29.95R WCI 13 QN CITY/ALNTWN FAIR 30 9 40 N9G17 29.96S QUAKERTOWN* CLEAR 28 9 43 NW9 29.94R PERKASIE* CLEAR 28 9 43 NW14G23 29.93F DOYLESTOWN CLEAR 30 6 36 NW12G20 29.92S READING CLEAR 30 9 41 NW15G25 29.96S LANCASTER CLEAR 31 10 41 W14 29.98S COATESVILLE CLEAR 28 10 47 NW14G21 29.96S WEST CHESTER CLEAR 32 12 43 MISG 29.94S POTTSTOWN CLEAR 29 8 41 NW10G25 29.96S BLUE BELL CLEAR 30 12 46 NW9G17 29.94S NORTH PHILA CLEAR 32 11 41 NW12G25 29.95S PHILADELPHIA CLEAR 33 10 38 NW21G28 29.96R $$

USA.gov is the U.S. government's official web portal to all federal, state and local government web resources and services.